TimeCST,TemperatureF,Dew PointF,Humidity,Sea Level PressureIn,VisibilityMPH,Wind Direction,Wind SpeedMPH,Gust SpeedMPH,PrecipitationIn,Events,Conditions,WindDirDegrees,DateUTC
12:53 AM,25.0,18.0,75,30.27,10.0,Calm,Calm,-,N/A,,Clear,0,2013-01-23 06:53:00
1:53 AM,24.1,18.0,77,30.27,10.0,Calm,Calm,-,N/A,,Clear,0,2013-01-23 07:53:00
2:53 AM,27.0,19.9,75,30.26,10.0,SSE,5.8,-,N/A,,Clear,150,2013-01-23 08:53:00
3:53 AM,27.0,19.9,75,30.25,10.0,SE,3.5,-,N/A,,Clear,140,2013-01-23 09:53:00
4:53 AM,25.0,19.0,78,30.24,10.0,SE,4.6,-,N/A,,Clear,140,2013-01-23 10:53:00
5:53 AM,25.0,19.0,78,30.25,10.0,Calm,Calm,-,N/A,,Clear,0,2013-01-23 11:53:00
6:53 AM,23.0,19.0,85,30.26,10.0,SE,4.6,-,N/A,,Clear,140,2013-01-23 12:53:00
7:53 AM,28.0,21.9,78,30.27,9.0,SE,6.9,-,N/A,,Clear,140,2013-01-23 13:53:00
8:53 AM,33.1,27.0,78,30.26,10.0,South,3.5,-,N/A,,Clear,180,2013-01-23 14:53:00
9:53 AM,39.9,28.0,63,30.27,10.0,Calm,Calm,-,N/A,,Clear,0,2013-01-23 15:53:00
10:53 AM,46.0,33.1,61,30.26,10.0,WSW,11.5,-,N/A,,Clear,240,2013-01-23 16:53:00
11:53 AM,50.0,35.1,57,30.22,10.0,WSW,9.2,-,N/A,,Clear,240,2013-01-23 17:53:00
12:53 PM,51.1,36.0,56,30.19,10.0,West,5.8,-,N/A,,Clear,260,2013-01-23 18:53:00
1:53 PM,54.0,37.0,53,30.17,10.0,WSW,5.8,-,N/A,,Clear,250,2013-01-23 19:53:00
2:53 PM,54.0,37.0,53,30.17,10.0,WNW,6.9,-,N/A,,Clear,300,2013-01-23 20:53:00
3:53 PM,55.0,37.0,51,30.17,10.0,Calm,Calm,-,N/A,,Clear,0,2013-01-23 21:53:00
4:53 PM,51.1,37.0,59,30.18,10.0,NW,5.8,-,N/A,,Clear,310,2013-01-23 22:53:00
5:53 PM,48.0,36.0,63,30.18,10.0,NNW,3.5,-,N/A,,Clear,330,2013-01-23 23:53:00
6:53 PM,43.0,36.0,76,30.22,10.0,North,3.5,-,N/A,,Clear,360,2013-01-24 00:53:00
7:53 PM,45.0,35.1,68,30.24,10.0,NNE,9.2,-,N/A,,Clear,30,2013-01-24 01:53:00
8:53 PM,42.1,28.9,60,30.26,10.0,NE,8.1,-,N/A,,Clear,40,2013-01-24 02:53:00
9:53 PM,39.0,27.0,62,30.28,10.0,NE,9.2,-,N/A,,Clear,40,2013-01-24 03:53:00
10:53 PM,37.0,24.1,59,30.30,10.0,NE,9.2,-,N/A,,Clear,40,2013-01-24 04:53:00
11:53 PM,36.0,23.0,59,30.32,10.0,NE,8.1,-,N/A,,Clear,40,2013-01-24 05:53:00